Year,Month,Day,Hour,Minute,Value (Times are PST for temperature in C)
2011,04,20,00,00,5.70
2011,04,20,00,01,5.70
2011,04,20,00,02,5.70
2011,04,20,00,03,5.70
2011,04,20,00,04,5.70
2011,04,20,00,05,5.70
2011,04,20,00,06,5.70
2011,04,20,00,07,5.70
2011,04,20,00,08,5.70
2011,04,20,00,09,5.70
2011,04,20,00,10,5.70
2011,04,20,00,11,5.70
2011,04,20,00,12,5.70
2011,04,20,00,13,5.70
2011,04,20,00,14,5.70
2011,04,20,00,15,5.60
2011,04,20,00,16,5.60
2011,04,20,00,17,5.60
2011,04,20,00,18,5.60
2011,04,20,00,19,5.60
2011,04,20,00,20,5.60
2011,04,20,00,21,5.60
2011,04,20,00,22,5.60
2011,04,20,00,23,5.60
2011,04,20,00,24,5.60
2011,04,20,00,25,5.60
2011,04,20,00,26,5.60
2011,04,20,00,27,5.60
2011,04,20,00,28,5.60
2011,04,20,00,29,5.60
2011,04,20,00,30,5.50
2011,04,20,00,31,5.50
2011,04,20,00,32,5.50
2011,04,20,00,33,5.50
2011,04,20,00,34,5.50
2011,04,20,00,35,5.50
2011,04,20,00,36,5.50
2011,04,20,00,37,5.50
2011,04,20,00,38,5.40
2011,04,20,00,39,5.40
2011,04,20,00,40,5.40
2011,04,20,00,41,5.40
2011,04,20,00,42,5.40
2011,04,20,00,43,5.40
2011,04,20,00,44,5.40
2011,04,20,00,45,5.30
2011,04,20,00,46,5.30
2011,04,20,00,47,5.30
2011,04,20,00,48,5.30
2011,04,20,00,49,5.30
2011,04,20,00,50,5.30
2011,04,20,00,51,5.30
2011,04,20,00,52,5.30
2011,04,20,00,53,5.30
2011,04,20,00,54,5.30
2011,04,20,00,55,5.30
2011,04,20,00,56,5.30
2011,04,20,00,57,5.30
2011,04,20,00,58,5.30
2011,04,20,00,59,5.30
2011,04,20,01,00,5.30
2011,04,20,01,01,5.30
2011,04,20,01,02,5.30
2011,04,20,01,03,5.30
2011,04,20,01,04,5.20
2011,04,20,01,05,5.20
2011,04,20,01,06,5.20
2011,04,20,01,07,5.20
2011,04,20,01,08,5.20
2011,04,20,01,09,5.10
2011,04,20,01,10,5.10
2011,04,20,01,11,5.10
2011,04,20,01,12,5.10
2011,04,20,01,13,5.10
2011,04,20,01,14,5.10
2011,04,20,01,15,5.10
2011,04,20,01,16,5.10
2011,04,20,01,17,5.10
2011,04,20,01,18,5.10
2011,04,20,01,19,5.10
2011,04,20,01,20,5.10
2011,04,20,01,21,5.10
2011,04,20,01,22,5.10
2011,04,20,01,23,5.10
2011,04,20,01,24,5.10
2011,04,20,01,25,5.10
2011,04,20,01,26,5.10
2011,04,20,01,27,5.10
2011,04,20,01,28,5.10
2011,04,20,01,29,5.10
2011,04,20,01,30,5.10
2011,04,20,01,31,5.00
2011,04,20,01,32,4.90
2011,04,20,01,33,4.90
2011,04,20,01,34,4.90
2011,04,20,01,35,4.90
2011,04,20,01,36,4.90
2011,04,20,01,37,4.90
2011,04,20,01,38,4.90
2011,04,20,01,39,4.90
2011,04,20,01,40,4.90
2011,04,20,01,41,4.90
2011,04,20,01,42,4.90
2011,04,20,01,43,4.80
2011,04,20,01,44,4.80
2011,04,20,01,45,4.80
2011,04,20,01,46,4.80
2011,04,20,01,47,4.80
2011,04,20,01,48,4.70
2011,04,20,01,49,4.70
2011,04,20,01,50,4.70
2011,04,20,01,51,4.60
2011,04,20,01,52,4.60
2011,04,20,01,53,4.60
2011,04,20,01,54,4.50
2011,04,20,01,55,4.50
2011,04,20,01,56,4.40
2011,04,20,01,57,4.40
2011,04,20,01,58,4.30
2011,04,20,01,59,4.30
2011,04,20,02,00,4.20
2011,04,20,02,01,4.20
2011,04,20,02,02,4.20
2011,04,20,02,03,4.20
2011,04,20,02,04,4.20
2011,04,20,02,05,4.20
2011,04,20,02,06,4.20
2011,04,20,02,07,4.20
2011,04,20,02,08,4.20
2011,04,20,02,09,4.20
2011,04,20,02,10,4.20
2011,04,20,02,11,4.20
2011,04,20,02,12,4.20
2011,04,20,02,13,4.20
2011,04,20,02,14,4.20
2011,04,20,02,15,4.20
2011,04,20,02,16,4.20
2011,04,20,02,17,4.20
2011,04,20,02,18,4.20
2011,04,20,02,19,4.10
2011,04,20,02,20,4.00
2011,04,20,02,21,4.00
2011,04,20,02,22,3.90
2011,04,20,02,23,3.80
2011,04,20,02,24,3.80
2011,04,20,02,25,3.80
2011,04,20,02,26,3.70
2011,04,20,02,27,3.70
2011,04,20,02,28,3.60
2011,04,20,02,29,3.60
2011,04,20,02,30,3.60
2011,04,20,02,31,3.50
2011,04,20,02,32,3.50
2011,04,20,02,33,3.50
2011,04,20,02,34,3.40
2011,04,20,02,35,3.40
2011,04,20,02,36,3.40
2011,04,20,02,37,3.50
2011,04,20,02,38,3.50
2011,04,20,02,39,3.50
2011,04,20,02,40,3.60
2011,04,20,02,41,3.60
2011,04,20,02,42,3.70
2011,04,20,02,43,3.70
2011,04,20,02,44,3.70
2011,04,20,02,45,3.80
2011,04,20,02,46,3.80
2011,04,20,02,47,3.80
2011,04,20,02,48,3.80
2011,04,20,02,49,3.80
2011,04,20,02,50,3.80
2011,04,20,02,51,3.70
2011,04,20,02,52,3.70
2011,04,20,02,53,3.60
2011,04,20,02,54,3.50
2011,04,20,02,55,3.50
2011,04,20,02,56,3.40
2011,04,20,02,57,3.30
2011,04,20,02,58,3.30
2011,04,20,02,59,3.30
2011,04,20,03,00,3.20
2011,04,20,03,01,3.20
2011,04,20,03,02,3.10
2011,04,20,03,03,3.10
2011,04,20,03,04,3.00
2011,04,20,03,05,2.90
2011,04,20,03,06,2.90
2011,04,20,03,07,2.90
2011,04,20,03,08,2.90
2011,04,20,03,09,2.90
2011,04,20,03,10,2.90
2011,04,20,03,11,2.80
2011,04,20,03,12,2.80
2011,04,20,03,13,2.80
2011,04,20,03,14,2.80
2011,04,20,03,15,2.80
2011,04,20,03,16,2.80
2011,04,20,03,17,2.70
2011,04,20,03,18,2.70
2011,04,20,03,19,2.70
2011,04,20,03,20,2.70
2011,04,20,03,21,2.70
2011,04,20,03,22,2.70
2011,04,20,03,23,2.70
2011,04,20,03,24,2.70
2011,04,20,03,25,2.70
2011,04,20,03,26,2.70
2011,04,20,03,27,2.70
2011,04,20,03,28,2.70
2011,04,20,03,29,2.70
2011,04,20,03,30,2.70
2011,04,20,03,31,2.60
2011,04,20,03,32,2.60
2011,04,20,03,33,2.60
2011,04,20,03,34,2.60
2011,04,20,03,35,2.50
2011,04,20,03,36,2.50
2011,04,20,03,37,2.50
2011,04,20,03,38,2.50
2011,04,20,03,39,2.50
2011,04,20,03,40,2.50
2011,04,20,03,41,2.50
2011,04,20,03,42,2.50
2011,04,20,03,43,2.50
2011,04,20,03,44,2.50
2011,04,20,03,45,2.50
2011,04,20,03,46,2.60
2011,04,20,03,47,2.60
2011,04,20,03,48,2.60
2011,04,20,03,49,2.60
2011,04,20,03,50,2.50
2011,04,20,03,51,2.50
2011,04,20,03,52,2.50
2011,04,20,03,53,2.50
2011,04,20,03,54,2.50
2011,04,20,03,55,2.50
2011,04,20,03,56,2.40
2011,04,20,03,57,2.40
2011,04,20,03,58,2.40
2011,04,20,03,59,2.30
2011,04,20,04,00,2.30
2011,04,20,04,01,2.20
2011,04,20,04,02,2.20
2011,04,20,04,03,2.20
2011,04,20,04,04,2.20
2011,04,20,04,05,2.20
2011,04,20,04,06,2.20
2011,04,20,04,07,2.20
2011,04,20,04,08,2.20
2011,04,20,04,09,2.20
2011,04,20,04,10,2.10
2011,04,20,04,11,2.10
2011,04,20,04,12,2.10
2011,04,20,04,13,2.10
2011,04,20,04,14,2.10
2011,04,20,04,15,2.10
2011,04,20,04,16,2.10
2011,04,20,04,17,2.10
2011,04,20,04,18,2.10
2011,04,20,04,19,2.10
2011,04,20,04,20,2.10
2011,04,20,04,21,2.10
2011,04,20,04,22,2.10
2011,04,20,04,23,2.10
2011,04,20,04,24,2.10
2011,04,20,04,25,2.10
2011,04,20,04,26,2.10
2011,04,20,04,27,2.10
2011,04,20,04,28,2.00
2011,04,20,04,29,2.00
2011,04,20,04,30,2.00
2011,04,20,04,31,2.00
2011,04,20,04,32,2.00
2011,04,20,04,33,2.00
2011,04,20,04,34,2.00
2011,04,20,04,35,1.90
2011,04,20,04,36,1.90
2011,04,20,04,37,1.90
2011,04,20,04,38,1.80
2011,04,20,04,39,1.80
2011,04,20,04,40,1.80
2011,04,20,04,41,1.80
2011,04,20,04,42,1.80
2011,04,20,04,43,1.80
2011,04,20,04,44,1.70
2011,04,20,04,45,1.70
2011,04,20,04,46,1.70
2011,04,20,04,47,1.70
2011,04,20,04,48,1.70
2011,04,20,04,49,1.70
2011,04,20,04,50,1.70
2011,04,20,04,51,1.60
2011,04,20,04,52,1.60
2011,04,20,04,53,1.60
2011,04,20,04,54,1.60
2011,04,20,04,55,1.60
2011,04,20,04,56,1.50
2011,04,20,04,57,1.50
2011,04,20,04,58,1.50
2011,04,20,04,59,1.50
2011,04,20,05,00,1.50
2011,04,20,05,01,1.50
2011,04,20,05,02,1.50
2011,04,20,05,03,1.50
2011,04,20,05,04,1.50
2011,04,20,05,05,1.50
2011,04,20,05,06,1.50
2011,04,20,05,07,1.50
2011,04,20,05,08,1.50
2011,04,20,05,09,1.40
2011,04,20,05,10,1.40
2011,04,20,05,11,1.40
2011,04,20,05,12,1.40
2011,04,20,05,13,1.40
2011,04,20,05,14,1.40
2011,04,20,05,15,1.40
2011,04,20,05,16,1.40
2011,04,20,05,17,1.40
2011,04,20,05,18,1.40
2011,04,20,05,19,1.40
2011,04,20,05,20,1.40
2011,04,20,05,21,1.30
2011,04,20,05,22,1.30
2011,04,20,05,23,1.30
2011,04,20,05,24,1.30
2011,04,20,05,25,1.30
2011,04,20,05,26,1.30
2011,04,20,05,27,1.30
2011,04,20,05,28,1.30
2011,04,20,05,29,1.30
2011,04,20,05,30,1.30
2011,04,20,05,31,1.30
2011,04,20,05,32,1.30
2011,04,20,05,33,1.30
2011,04,20,05,34,1.40
2011,04,20,05,35,1.40
2011,04,20,05,36,1.40
2011,04,20,05,37,1.40
2011,04,20,05,38,1.40
2011,04,20,05,39,1.40
2011,04,20,05,40,1.40
2011,04,20,05,41,1.40
2011,04,20,05,42,1.50
2011,04,20,05,43,1.50
2011,04,20,05,44,1.50
2011,04,20,05,45,1.40
2011,04,20,05,46,1.40
2011,04,20,05,47,1.40
2011,04,20,05,48,1.40
2011,04,20,05,49,1.40
2011,04,20,05,50,1.40
2011,04,20,05,51,1.40
2011,04,20,05,52,1.40
2011,04,20,05,53,1.40
2011,04,20,05,54,1.40
2011,04,20,05,55,1.40
2011,04,20,05,56,1.30
2011,04,20,05,57,1.30
2011,04,20,05,58,1.30
2011,04,20,05,59,1.30
2011,04,20,06,00,1.30
2011,04,20,06,01,1.30
2011,04,20,06,02,1.30
2011,04,20,06,03,1.30
2011,04,20,06,04,1.30
2011,04,20,06,05,1.30
2011,04,20,06,06,1.30
2011,04,20,06,07,1.30
2011,04,20,06,08,1.20
2011,04,20,06,09,1.20
2011,04,20,06,10,1.20
2011,04,20,06,11,1.20
2011,04,20,06,12,1.20
2011,04,20,06,13,1.20
2011,04,20,06,14,1.20
2011,04,20,06,15,1.20
2011,04,20,06,16,1.20
2011,04,20,06,17,1.20
2011,04,20,06,18,1.20
2011,04,20,06,19,1.20
2011,04,20,06,20,1.20
2011,04,20,06,21,1.10
2011,04,20,06,22,1.10
2011,04,20,06,23,1.10
2011,04,20,06,24,1.10
2011,04,20,06,25,1.10
2011,04,20,06,26,1.10
2011,04,20,06,27,1.10
2011,04,20,06,28,1.00
2011,04,20,06,29,1.00
2011,04,20,06,30,1.00
2011,04,20,06,31,1.00
2011,04,20,06,32,1.00
2011,04,20,06,33,1.00
2011,04,20,06,34,1.00
2011,04,20,06,35,1.00
2011,04,20,06,36,1.00
2011,04,20,06,37,1.00
2011,04,20,06,38,1.00
2011,04,20,06,39,1.00
2011,04,20,06,40,1.00
2011,04,20,06,41,1.00
2011,04,20,06,42,1.10
2011,04,20,06,43,1.10
2011,04,20,06,44,1.10
2011,04,20,06,45,1.10
2011,04,20,06,46,1.20
2011,04,20,06,47,1.20
2011,04,20,06,48,1.20
2011,04,20,06,49,1.30
2011,04,20,06,50,1.30
2011,04,20,06,51,1.30
2011,04,20,06,52,1.30
2011,04,20,06,53,1.40
2011,04,20,06,54,1.40
2011,04,20,06,55,1.40
2011,04,20,06,56,1.40
2011,04,20,06,57,1.50
2011,04,20,06,58,1.50
2011,04,20,06,59,1.50
2011,04,20,07,00,1.50
2011,04,20,07,01,1.50
2011,04,20,07,02,1.50
2011,04,20,07,03,1.50
2011,04,20,07,04,1.50
2011,04,20,07,05,1.60
2011,04,20,07,06,1.60
2011,04,20,07,07,1.60
2011,04,20,07,08,1.60
2011,04,20,07,09,1.60
2011,04,20,07,10,1.70
2011,04,20,07,11,1.70
2011,04,20,07,12,1.70
2011,04,20,07,13,1.70
2011,04,20,07,14,1.80
2011,04,20,07,15,1.80
2011,04,20,07,16,1.80
2011,04,20,07,17,1.80
2011,04,20,07,18,1.80
2011,04,20,07,19,1.80
2011,04,20,07,20,1.80
2011,04,20,07,21,1.90
2011,04,20,07,22,1.90
2011,04,20,07,23,1.90
2011,04,20,07,24,2.00
2011,04,20,07,25,2.00
2011,04,20,07,26,2.00
2011,04,20,07,27,2.10
2011,04,20,07,28,2.10
2011,04,20,07,29,2.10
2011,04,20,07,30,2.20
2011,04,20,07,31,2.20
2011,04,20,07,32,2.20
2011,04,20,07,33,2.20
2011,04,20,07,34,2.30
2011,04,20,07,35,2.40
2011,04,20,07,36,2.40
2011,04,20,07,37,2.50
2011,04,20,07,38,2.50
2011,04,20,07,39,2.60
2011,04,20,07,40,2.60
2011,04,20,07,41,2.70
2011,04,20,07,42,2.70
2011,04,20,07,43,2.70
2011,04,20,07,44,2.80
2011,04,20,07,45,2.80
2011,04,20,07,46,2.90
2011,04,20,07,47,2.90
2011,04,20,07,48,2.90
2011,04,20,07,49,3.00
2011,04,20,07,50,3.10
2011,04,20,07,51,3.10
2011,04,20,07,52,3.20
2011,04,20,07,53,3.20
2011,04,20,07,54,3.30
2011,04,20,07,55,3.30
2011,04,20,07,56,3.30
2011,04,20,07,57,3.40
2011,04,20,07,58,3.50
2011,04,20,07,59,3.60
2011,04,20,08,00,3.60
2011,04,20,08,01,3.70
2011,04,20,08,02,3.80
2011,04,20,08,03,3.80
2011,04,20,08,04,3.90
2011,04,20,08,05,3.90
2011,04,20,08,06,4.00
2011,04,20,08,07,4.00
2011,04,20,08,08,4.10
2011,04,20,08,09,4.10
2011,04,20,08,10,4.10
2011,04,20,08,11,4.20
2011,04,20,08,12,4.20
2011,04,20,08,13,4.20
2011,04,20,08,14,4.20
2011,04,20,08,15,4.20
2011,04,20,08,16,4.30
2011,04,20,08,17,4.30
2011,04,20,08,18,4.40
2011,04,20,08,19,4.40
2011,04,20,08,20,4.40
2011,04,20,08,21,4.50
2011,04,20,08,22,4.50
2011,04,20,08,23,4.50
2011,04,20,08,24,4.60
2011,04,20,08,25,4.60
2011,04,20,08,26,4.60
2011,04,20,08,27,4.60
2011,04,20,08,28,4.60
2011,04,20,08,29,4.60
2011,04,20,08,30,4.70
2011,04,20,08,31,4.70
2011,04,20,08,32,4.80
2011,04,20,08,33,4.80
2011,04,20,08,34,4.80
2011,04,20,08,35,4.90
2011,04,20,08,36,4.90
2011,04,20,08,37,4.90
2011,04,20,08,38,4.90
2011,04,20,08,39,4.90
2011,04,20,08,40,4.90
2011,04,20,08,41,5.10
2011,04,20,08,42,5.10
2011,04,20,08,43,5.10
2011,04,20,08,44,5.10
2011,04,20,08,45,5.10
2011,04,20,08,46,5.10
2011,04,20,08,47,5.20
2011,04,20,08,48,5.20
2011,04,20,08,49,5.20
2011,04,20,08,50,5.20
2011,04,20,08,51,5.20
2011,04,20,08,52,5.30
2011,04,20,08,53,5.30
2011,04,20,08,54,5.30
2011,04,20,08,55,5.30
2011,04,20,08,56,5.30
2011,04,20,08,57,5.40
2011,04,20,08,58,5.40
2011,04,20,08,59,5.40
2011,04,20,09,00,5.40
2011,04,20,09,01,5.50
2011,04,20,09,02,5.50
2011,04,20,09,03,5.50
2011,04,20,09,04,5.50
2011,04,20,09,05,5.50
2011,04,20,09,06,5.50
2011,04,20,09,07,5.50
2011,04,20,09,08,5.50
2011,04,20,09,09,5.50
2011,04,20,09,10,5.50
2011,04,20,09,11,5.50
2011,04,20,09,12,5.50
2011,04,20,09,13,5.60
2011,04,20,09,14,5.60
2011,04,20,09,15,5.60
2011,04,20,09,16,5.60
2011,04,20,09,17,5.60
2011,04,20,09,18,5.60
2011,04,20,09,19,5.60
2011,04,20,09,20,5.60
2011,04,20,09,21,5.60
2011,04,20,09,22,5.60
2011,04,20,09,23,5.60
2011,04,20,09,24,5.60
2011,04,20,09,25,5.60
2011,04,20,09,26,5.60
2011,04,20,09,27,5.60
2011,04,20,09,28,5.60
2011,04,20,09,29,5.60
2011,04,20,09,30,5.70
2011,04,20,09,31,5.70
2011,04,20,09,32,5.70
2011,04,20,09,33,5.70
2011,04,20,09,34,5.70
2011,04,20,09,35,5.70
2011,04,20,09,36,5.80
2011,04,20,09,37,5.80
2011,04,20,09,38,5.90
2011,04,20,09,39,5.90
2011,04,20,09,40,6.00
2011,04,20,09,41,5.90
2011,04,20,09,42,5.90
2011,04,20,09,43,5.90
2011,04,20,09,44,5.90
2011,04,20,09,45,6.00
2011,04,20,09,46,6.00
2011,04,20,09,47,6.00
2011,04,20,09,48,6.00
2011,04,20,09,49,6.00
2011,04,20,09,50,6.00
2011,04,20,09,51,6.00
2011,04,20,09,52,6.00
2011,04,20,09,53,6.00
2011,04,20,09,54,6.00
2011,04,20,09,55,6.10
2011,04,20,09,56,6.20
2011,04,20,09,57,6.20
2011,04,20,09,58,6.20
2011,04,20,09,59,6.20
2011,04,20,10,00,6.20
2011,04,20,10,01,6.20
2011,04,20,10,02,6.20
2011,04,20,10,03,6.30
2011,04,20,10,04,6.30
2011,04,20,10,05,6.30
2011,04,20,10,06,6.30
2011,04,20,10,07,6.30
2011,04,20,10,08,6.30
2011,04,20,10,09,6.20
2011,04,20,10,10,6.30
2011,04,20,10,11,6.20
2011,04,20,10,12,6.20
2011,04,20,10,13,6.30
2011,04,20,10,14,6.30
2011,04,20,10,15,6.40
2011,04,20,10,16,6.50
2011,04,20,10,17,6.60
2011,04,20,10,18,6.70
2011,04,20,10,19,6.70
2011,04,20,10,20,6.80
2011,04,20,10,21,6.80
2011,04,20,10,22,6.70
2011,04,20,10,23,6.70
2011,04,20,10,24,6.60
2011,04,20,10,25,6.60
2011,04,20,10,26,6.60
2011,04,20,10,27,6.60
2011,04,20,10,28,6.60
2011,04,20,10,29,6.60
2011,04,20,10,30,6.60
2011,04,20,10,31,6.70
2011,04,20,10,32,6.70
2011,04,20,10,33,6.70
2011,04,20,10,34,6.70
2011,04,20,10,35,6.80
2011,04,20,10,36,6.80
2011,04,20,10,37,6.80
2011,04,20,10,38,6.80
2011,04,20,10,39,6.80
2011,04,20,10,40,6.90
2011,04,20,10,41,7.00
2011,04,20,10,42,7.00
2011,04,20,10,43,7.10
2011,04,20,10,44,7.20
2011,04,20,10,45,7.20
2011,04,20,10,46,7.20
2011,04,20,10,47,7.10
2011,04,20,10,48,7.10
2011,04,20,10,49,7.10
2011,04,20,10,50,7.10
2011,04,20,10,51,7.20
2011,04,20,10,52,7.20
2011,04,20,10,53,7.30
2011,04,20,10,54,7.30
2011,04,20,10,55,7.30
2011,04,20,10,56,7.30
2011,04,20,10,57,7.40
2011,04,20,10,58,7.40
2011,04,20,10,59,7.40
2011,04,20,11,00,7.50
2011,04,20,11,01,7.50
2011,04,20,11,02,7.50
2011,04,20,11,03,7.50
2011,04,20,11,04,7.50
2011,04,20,11,05,7.50
2011,04,20,11,06,7.50
2011,04,20,11,07,7.50
2011,04,20,11,08,7.50
2011,04,20,11,09,7.50
2011,04,20,11,10,7.60
2011,04,20,11,11,7.60
2011,04,20,11,12,7.70
2011,04,20,11,13,7.70
2011,04,20,11,14,7.80
2011,04,20,11,15,7.90
2011,04,20,11,16,7.90
2011,04,20,11,17,8.00
2011,04,20,11,18,8.10
2011,04,20,11,19,8.20
2011,04,20,11,20,8.20
2011,04,20,11,21,8.20
2011,04,20,11,22,8.20
2011,04,20,11,23,8.20
2011,04,20,11,24,8.10
2011,04,20,11,25,8.00
2011,04,20,11,26,8.00
2011,04,20,11,27,8.00
2011,04,20,11,28,8.00
2011,04,20,11,29,8.00
2011,04,20,11,30,8.00
2011,04,20,11,31,8.00
2011,04,20,11,32,8.00
2011,04,20,11,33,8.10
2011,04,20,11,34,8.10
2011,04,20,11,35,8.10
2011,04,20,11,36,8.20
2011,04,20,11,37,8.20
2011,04,20,11,38,8.20
2011,04,20,11,39,8.20
2011,04,20,11,40,8.30
2011,04,20,11,41,8.40
2011,04,20,11,42,8.40
2011,04,20,11,43,8.50
2011,04,20,11,44,8.50
2011,04,20,11,45,8.50
2011,04,20,11,46,8.50
2011,04,20,11,47,8.40
2011,04,20,11,48,8.30
2011,04,20,11,49,8.20
2011,04,20,11,50,8.20
2011,04,20,11,51,8.10
2011,04,20,11,52,8.10
2011,04,20,11,53,8.10
2011,04,20,11,54,8.10
2011,04,20,11,55,8.20
2011,04,20,11,56,8.40
2011,04,20,11,57,8.50
2011,04,20,11,58,8.40
2011,04,20,11,59,8.30
2011,04,20,12,00,8.30
2011,04,20,12,01,8.30
2011,04,20,12,02,8.30
2011,04,20,12,03,8.40
2011,04,20,12,04,8.40
2011,04,20,12,05,8.50
2011,04,20,12,06,8.50
2011,04,20,12,07,8.50
2011,04,20,12,08,8.40
2011,04,20,12,09,8.40
2011,04,20,12,10,8.50
2011,04,20,12,11,8.60
2011,04,20,12,12,8.70
2011,04,20,12,13,8.80
2011,04,20,12,14,8.80
2011,04,20,12,15,8.90
2011,04,20,12,16,9.00
2011,04,20,12,17,9.00
2011,04,20,12,18,8.70
2011,04,20,12,19,8.50
2011,04,20,12,20,8.30
2011,04,20,12,21,8.00
2011,04,20,12,22,7.80
2011,04,20,12,23,7.70
2011,04,20,12,24,7.70
2011,04,20,12,25,7.80
2011,04,20,12,26,7.90
2011,04,20,12,27,8.00
2011,04,20,12,28,8.10
2011,04,20,12,29,8.20
2011,04,20,12,30,8.20
2011,04,20,12,31,8.20
2011,04,20,12,32,8.30
2011,04,20,12,33,8.40
2011,04,20,12,34,8.30
2011,04,20,12,35,8.40
2011,04,20,12,36,8.60
2011,04,20,12,37,8.60
2011,04,20,12,38,8.50
2011,04,20,12,39,8.40
2011,04,20,12,40,8.40
2011,04,20,12,41,8.40
2011,04,20,12,42,8.40
2011,04,20,12,43,8.50
2011,04,20,12,44,8.70
2011,04,20,12,45,8.80
2011,04,20,12,46,8.90
2011,04,20,12,47,8.90
2011,04,20,12,48,8.80
2011,04,20,12,49,8.70
2011,04,20,12,50,8.70
2011,04,20,12,51,8.70
2011,04,20,12,52,8.70
2011,04,20,12,53,8.70
2011,04,20,12,54,8.60
2011,04,20,12,55,8.40
2011,04,20,12,56,8.30
2011,04,20,12,57,8.40
2011,04,20,12,58,8.60
2011,04,20,12,59,8.80
2011,04,20,13,00,9.00
2011,04,20,13,01,9.10
2011,04,20,13,02,9.20
2011,04,20,13,03,9.30
2011,04,20,13,04,9.40
2011,04,20,13,05,9.50
2011,04,20,13,06,9.30
2011,04,20,13,07,9.00
2011,04,20,13,08,8.70
2011,04,20,13,09,8.60
2011,04,20,13,10,8.60
2011,04,20,13,11,8.70
2011,04,20,13,12,8.60
2011,04,20,13,13,8.50
2011,04,20,13,14,8.40
2011,04,20,13,15,8.30
2011,04,20,13,16,8.20
2011,04,20,13,17,8.10
2011,04,20,13,18,8.00
2011,04,20,13,19,8.00
2011,04,20,13,20,8.10
2011,04,20,13,21,8.30
2011,04,20,13,22,8.50
2011,04,20,13,23,8.60
2011,04,20,13,24,8.60
2011,04,20,13,25,8.60
2011,04,20,13,26,8.60
2011,04,20,13,27,8.70
2011,04,20,13,28,8.70
2011,04,20,13,29,8.70
2011,04,20,13,30,8.60
2011,04,20,13,31,8.40
2011,04,20,13,32,8.10
2011,04,20,13,33,7.90
2011,04,20,13,34,8.00
2011,04,20,13,35,8.20
2011,04,20,13,36,8.20
2011,04,20,13,37,8.10
2011,04,20,13,38,8.20
2011,04,20,13,39,8.40
2011,04,20,13,40,8.40
2011,04,20,13,41,8.50
2011,04,20,13,42,8.50
2011,04,20,13,43,8.40
2011,04,20,13,44,8.50
2011,04,20,13,45,8.50
2011,04,20,13,46,8.40
2011,04,20,13,47,8.30
2011,04,20,13,48,8.40
2011,04,20,13,49,8.40
2011,04,20,13,50,8.40
2011,04,20,13,51,8.50
2011,04,20,13,52,8.60
2011,04,20,13,53,8.60
2011,04,20,13,54,8.70
2011,04,20,13,55,8.70
2011,04,20,13,56,8.70
2011,04,20,13,57,8.70
2011,04,20,13,58,8.60
2011,04,20,13,59,8.50
2011,04,20,14,00,8.50
2011,04,20,14,01,8.50
2011,04,20,14,02,8.50
2011,04,20,14,03,8.60
2011,04,20,14,04,8.70
2011,04,20,14,05,8.70
2011,04,20,14,06,8.60
2011,04,20,14,07,8.50
2011,04,20,14,08,8.30
2011,04,20,14,09,8.20
2011,04,20,14,10,8.20
2011,04,20,14,11,8.20
2011,04,20,14,12,8.30
2011,04,20,14,13,8.50
2011,04,20,14,14,8.60
2011,04,20,14,15,8.60
2011,04,20,14,16,8.50
2011,04,20,14,17,8.60
2011,04,20,14,18,8.60
2011,04,20,14,19,8.70
2011,04,20,14,20,8.60
2011,04,20,14,21,8.60
2011,04,20,14,22,8.70
2011,04,20,14,23,8.70
2011,04,20,14,24,8.60
2011,04,20,14,25,8.40
2011,04,20,14,26,8.30
2011,04,20,14,27,8.30
2011,04,20,14,28,8.40
2011,04,20,14,29,8.60
2011,04,20,14,30,8.70
2011,04,20,14,31,8.90
2011,04,20,14,32,8.90
2011,04,20,14,33,8.80
2011,04,20,14,34,8.70
2011,04,20,14,35,8.80
2011,04,20,14,36,9.00
2011,04,20,14,37,9.00
2011,04,20,14,38,8.80
2011,04,20,14,39,8.80
2011,04,20,14,40,8.70
2011,04,20,14,41,8.70
2011,04,20,14,42,8.90
2011,04,20,14,43,9.20
2011,04,20,14,44,9.30
2011,04,20,14,45,9.40
2011,04,20,14,46,9.40
2011,04,20,14,47,9.30
2011,04,20,14,48,9.30
2011,04,20,14,49,9.40
2011,04,20,14,50,9.50
2011,04,20,14,51,9.70
2011,04,20,14,52,9.80
2011,04,20,14,53,9.90
2011,04,20,14,54,9.90
2011,04,20,14,55,10.00
2011,04,20,14,56,10.00
2011,04,20,14,57,9.80
2011,04,20,14,58,9.80
2011,04,20,14,59,9.90
2011,04,20,15,00,10.10
2011,04,20,15,01,10.30
2011,04,20,15,02,10.30
2011,04,20,15,03,10.30
2011,04,20,15,04,10.40
2011,04,20,15,05,10.40
2011,04,20,15,06,10.40
2011,04,20,15,07,10.30
2011,04,20,15,08,10.20
2011,04,20,15,09,10.10
2011,04,20,15,10,10.20
2011,04,20,15,11,10.30
2011,04,20,15,12,10.40
2011,04,20,15,13,10.30
2011,04,20,15,14,10.30
2011,04,20,15,15,10.40
2011,04,20,15,16,10.30
2011,04,20,15,17,10.20
2011,04,20,15,18,10.20
2011,04,20,15,19,10.10
2011,04,20,15,20,10.10
2011,04,20,15,21,10.10
2011,04,20,15,22,10.10
2011,04,20,15,23,10.10
2011,04,20,15,24,10.10
2011,04,20,15,25,10.10
2011,04,20,15,26,10.10
2011,04,20,15,27,10.10
2011,04,20,15,28,10.10
2011,04,20,15,29,10.10
2011,04,20,15,30,10.10
2011,04,20,15,31,10.10
2011,04,20,15,32,10.10
2011,04,20,15,33,10.10
2011,04,20,15,34,10.10
2011,04,20,15,35,10.10
2011,04,20,15,36,10.10
2011,04,20,15,37,10.10
2011,04,20,15,38,10.20
2011,04,20,15,39,10.20
2011,04,20,15,40,10.20
2011,04,20,15,41,10.10
2011,04,20,15,42,10.00
2011,04,20,15,43,9.90
2011,04,20,15,44,9.80
2011,04,20,15,45,9.70
2011,04,20,15,46,9.70
2011,04,20,15,47,9.80
2011,04,20,15,48,9.80
2011,04,20,15,49,9.90
2011,04,20,15,50,10.00
2011,04,20,15,51,10.10
2011,04,20,15,52,10.20
2011,04,20,15,53,10.30
2011,04,20,15,54,10.40
2011,04,20,15,55,10.40
2011,04,20,15,56,10.30
2011,04,20,15,57,10.30
2011,04,20,15,58,10.30
2011,04,20,15,59,10.40
2011,04,20,16,00,10.50
2011,04,20,16,01,10.40
2011,04,20,16,02,10.40
2011,04,20,16,03,10.40
2011,04,20,16,04,10.40
2011,04,20,16,05,10.40
2011,04,20,16,06,10.40
2011,04,20,16,07,10.40
2011,04,20,16,08,10.40
2011,04,20,16,09,10.40
2011,04,20,16,10,10.40
2011,04,20,16,11,10.40
2011,04,20,16,12,10.40
2011,04,20,16,13,10.30
2011,04,20,16,14,10.30
2011,04,20,16,15,10.30
2011,04,20,16,16,10.40
2011,04,20,16,17,10.50
2011,04,20,16,18,10.40
2011,04,20,16,19,10.50
2011,04,20,16,20,10.60
2011,04,20,16,21,10.60
2011,04,20,16,22,10.60
2011,04,20,16,23,10.60
2011,04,20,16,24,10.60
2011,04,20,16,25,10.60
2011,04,20,16,26,10.70
2011,04,20,16,27,10.70
2011,04,20,16,28,10.80
2011,04,20,16,29,10.70
2011,04,20,16,30,10.70
2011,04,20,16,31,10.80
2011,04,20,16,32,10.70
2011,04,20,16,33,10.70
2011,04,20,16,34,10.80
2011,04,20,16,35,10.80
2011,04,20,16,36,10.80
2011,04,20,16,37,10.90
2011,04,20,16,38,10.80
2011,04,20,16,39,10.80
2011,04,20,16,40,10.90
2011,04,20,16,41,10.90
2011,04,20,16,42,10.80
2011,04,20,16,43,10.80
2011,04,20,16,44,10.80
2011,04,20,16,45,10.90
2011,04,20,16,46,10.90
2011,04,20,16,47,10.90
2011,04,20,16,48,10.80
2011,04,20,16,49,10.80
2011,04,20,16,50,10.80
2011,04,20,16,51,10.80
2011,04,20,16,52,10.90
2011,04,20,16,53,10.90
2011,04,20,16,54,10.90
2011,04,20,16,55,10.90
2011,04,20,16,56,10.90
2011,04,20,16,57,10.80
2011,04,20,16,58,10.80
2011,04,20,16,59,10.90
2011,04,20,17,00,10.90
2011,04,20,17,01,10.90
2011,04,20,17,02,11.00
2011,04,20,17,03,11.10
2011,04,20,17,04,11.10
2011,04,20,17,05,11.10
2011,04,20,17,06,11.20
2011,04,20,17,07,11.30
2011,04,20,17,08,11.30
2011,04,20,17,09,11.30
2011,04,20,17,10,11.30
2011,04,20,17,11,11.20
2011,04,20,17,12,11.20
2011,04,20,17,13,11.00
2011,04,20,17,14,10.90
2011,04,20,17,15,10.80
2011,04,20,17,16,10.60
2011,04,20,17,17,10.60
2011,04,20,17,18,10.50
2011,04,20,17,19,10.40
2011,04,20,17,20,10.40
2011,04,20,17,21,10.40
2011,04,20,17,22,10.40
2011,04,20,17,23,10.40
2011,04,20,17,24,10.40
2011,04,20,17,25,10.30
2011,04,20,17,26,10.20
2011,04,20,17,27,10.20
2011,04,20,17,28,10.10
2011,04,20,17,29,10.10
2011,04,20,17,30,10.10
2011,04,20,17,31,10.10
2011,04,20,17,32,10.10
2011,04,20,17,33,10.00
2011,04,20,17,34,9.90
2011,04,20,17,35,9.80
2011,04,20,17,36,9.70
2011,04,20,17,37,9.70
2011,04,20,17,38,9.70
2011,04,20,17,39,9.60
2011,04,20,17,40,9.50
2011,04,20,17,41,9.40
2011,04,20,17,42,9.20
2011,04,20,17,43,9.00
2011,04,20,17,44,8.90
2011,04,20,17,45,8.90
2011,04,20,17,46,8.80
2011,04,20,17,47,8.80
2011,04,20,17,48,8.70
2011,04,20,17,49,8.70
2011,04,20,17,50,8.70
2011,04,20,17,51,8.70
2011,04,20,17,52,8.70
2011,04,20,17,53,8.70
2011,04,20,17,54,8.60
2011,04,20,17,55,8.60
2011,04,20,17,56,8.60
2011,04,20,17,57,8.50
2011,04,20,17,58,8.50
2011,04,20,17,59,8.60